{"data":{"norad_id":49105,"intl_designator":"2021-075AG","name":"ONEWEB-0319","alt_names":[],"object_type":"PAYLOAD","status":"ACTIVE","operator":null,"country":"UK","launch_date":"2021-08-21","launch_site_code":"TYMSC","launch_vehicle":null,"mission":null,"orbit_class":"UNKNOWN","rcs_meters":null,"size_class":null,"mass_kg":null,"dimensions":null,"purposes":["comms"],"wikipedia_slug":null,"has_3d_model":false,"image_url":null,"decayed_at":null,"tle_current":{"epoch":"2026-09-19T22:36:06.022368Z","epoch_age_seconds":70262,"freshness":"FRESH","line1":"1 49105U 21075AG  26262.94173637 -.00000023  00000+0 -92667-4 0  9992","line2":"2 49105  87.9200 347.0515 0002380 108.2666 251.8725 13.17651066246080","mean_motion":13.17651066,"eccentricity":0.000238,"inclination_deg":87.92,"raan_deg":347.0515,"arg_perigee_deg":108.2666,"mean_anomaly_deg":251.8725,"bstar":-9.2667e-5,"rev_number":24608,"period_min":109.2853819313,"perigee_km":1191.9032465705,"apogee_km":1195.5074435268,"semimajor_km":7571.8423450487,"source":"CELESTRAK","updated_at":"2026-09-20T09:00:44.659147Z"}}}